This is the latest recevied weather packets stored in our database for station/object K4ZZR. If no packets are shown the sender has not sent any weather packets the latest 10 day(s).
| Time | Temp. | Humidity | Pressure | Rain* | Wind** | Luminosity | Snow |
|---|---|---|---|---|---|---|---|
| 1777685587 | 26.11° C | 82% | 1011.2 hPa | 0 mm | - | 0 W/m² | - |
| 1777685284 | 26.11° C | 82% | 1010.8 hPa | 0 mm | - | 0 W/m² | - |
| 1777684981 | 26.11° C | 82% | 1010.9 hPa | 0 mm | - | 0 W/m² | - |
| 1777684678 | 26.11° C | 82% | 1010.6 hPa | 0 mm | - | 0 W/m² | - |
| 1777684374 | 26.11° C | 82% | 1010.8 hPa | 0 mm | - | 0 W/m² | - |
| 1777684072 | 26.11° C | 82% | 1010.5 hPa | 0 mm | - | 0 W/m² | - |
| 1777683768 | 26.11° C | 82% | 1010.4 hPa | 0 mm | - | 0 W/m² | - |
| 1777683465 | 26.11° C | 82% | 1010.3 hPa | 0 mm | - | 0 W/m² | - |
| 1777683163 | 26.11° C | 81% | 1010.6 hPa | 0 mm | - | 0 W/m² | - |
| 1777682860 | 26.11° C | 81% | 1010.4 hPa | 0 mm | - | 0 W/m² | - |
| 1777682556 | 26.67° C | 80% | 1010.3 hPa | 0 mm | - | 0 W/m² | - |
| 1777682254 | 26.67° C | 80% | 1010.1 hPa | 0 mm | - | 0 W/m² | - |
| 1777681951 | 26.67° C | 79% | 1010.1 hPa | 0 mm | - | 0 W/m² | - |
| 1777681646 | 26.67° C | 79% | 1009.9 hPa | 0 mm | - | 0 W/m² | - |
| 1777681345 | 26.67° C | 79% | 1009.8 hPa | 0 mm | - | 0 W/m² | - |
| 1777681041 | 26.67° C | 80% | 1009.9 hPa | 0 mm | - | 0 W/m² | - |
| 1777680740 | 26.67° C | 80% | 1009.9 hPa | 0 mm | - | 0 W/m² | - |
| 1777680437 | 26.67° C | 80% | 1009.8 hPa | 0 mm | - | 1 W/m² | - |
| 1777680135 | 26.67° C | 80% | 1009.6 hPa | 0 mm | - | 2 W/m² | - |
| 1777679830 | 26.67° C | 80% | 1009.6 hPa | 0 mm | - | 4 W/m² | - |
| 1777679526 | 26.67° C | 80% | 1009.5 hPa | 0 mm | - | 9 W/m² | - |
| 1777679222 | 27.22° C | 79% | 1009.6 hPa | 0 mm | - | 18 W/m² | - |
| 1777678919 | 27.22° C | 79% | 1009.4 hPa | 0 mm | - | 26 W/m² | - |
| 1777678617 | 27.22° C | 79% | 1009.5 hPa | 0 mm | - | 34 W/m² | - |
| 1777678314 | 27.22° C | 78% | 1009.3 hPa | 0 mm | - | 42 W/m² | - |
* Rain latest hour (hover to see other rain measurements)
** Current wind speed in m/s (hover to see current wind gust speed)